| time (UTC) | temp C | wind direction | speed KPH | gust KPH | rain 1hr cm | rain 24hr cm | rain mn cm | humidity % | barometer mb |
| 20260505113113 | 26 | 200 | 0.0 | 3.2 | 0.00 | 0.00 | 0.00 | 90 | 1017.2 |
| 20260505112609 | 26 | 142 | 0.0 | 3.2 | 0.00 | 0.00 | 0.00 | 91 | 1017.2 |
| 20260505112108 | 26 | 162 | 3.2 | 3.2 | 0.00 | 0.00 | 0.00 | 92 | 1017.2 |
| 20260505111601 | 25 | 185 | 1.6 | 3.2 | 0.00 | 0.00 | 0.00 | 93 | 1017.0 |
| 20260505111058 | 25 | 205 | 0.0 | 3.2 | 0.00 | 0.00 | 0.00 | 94 | 1017.0 |
| 20260505110554 | 25 | 198 | 1.6 | 1.6 | 0.00 | 0.00 | 0.00 | 97 | 1017.0 |
| 20260505102027 | 22 | 113 | 0.0 | 3.2 | 0.00 | 0.00 | 0.00 | 98 | 1016.3 |
| 20260505101525 | 22 | 104 | 4.8 | 4.8 | 0.05 | 0.00 | 0.00 | 98 | 1016.2 |
| 20260505101021 | 23 | 115 | 3.2 | 6.4 | 0.05 | 0.00 | 0.00 | 98 | 1016.4 |
| 20260505100519 | 23 | 117 | 3.2 | 4.8 | 0.00 | 0.00 | 0.00 | 98 | 1016.3 |
| 20260505100016 | 22 | 126 | 4.8 | 6.4 | 0.00 | 0.00 | 0.00 | 98 | 1016.1 |
| 20260505095511 | 22 | 93 | 3.2 | 3.2 | 0.00 | 0.00 | 0.00 | 97 | 1016.2 |
| 20260505095008 | 22 | 93 | 0.0 | 3.2 | 0.00 | 0.00 | 0.00 | 97 | 1016.3 |
| 20260505094504 | 22 | 65 | 1.6 | 4.8 | 0.00 | 0.00 | 0.00 | 97 | 1016.2 |
| 20260505094001 | 22 | 65 | 3.2 | 4.8 | 0.00 | 0.00 | 0.00 | 97 | 1016.2 |
| 20260505093457 | 22 | 79 | 3.2 | 3.2 | 0.00 | 0.00 | 0.00 | 97 | 1016.2 |
| 20260505092955 | 22 | 64 | 3.2 | 3.2 | 0.00 | 0.00 | 0.00 | 97 | 1016.1 |
| 20260505092452 | 22 | 117 | 1.6 | 3.2 | 0.00 | 0.00 | 0.00 | 97 | 1016.1 |
| 20260505091950 | 22 | 58 | 3.2 | 3.2 | 0.00 | 0.00 | 0.00 | 98 | 1016.2 |
| 20260505091447 | 22 | 131 | 1.6 | 4.8 | 0.00 | 0.00 | 0.00 | 98 | 1016.1 |
| 20260505090945 | 22 | 74 | 3.2 | 4.8 | 0.00 | 0.00 | 0.00 | 98 | 1016.1 |
| 20260505090443 | 22 | 72 | 3.2 | 3.2 | 0.00 | 0.00 | 0.00 | 97 | 1016.2 |
| 20260505085940 | 22 | 56 | 1.6 | 3.2 | 0.00 | 0.00 | 0.00 | 98 | 1016.0 |
| 20260505085438 | 22 | 88 | 3.2 | 3.2 | 0.00 | 0.00 | 0.00 | 97 | 1015.9 |
| 20260505084936 | 22 | 87 | 3.2 | 3.2 | 0.00 | 0.00 | 0.00 | 97 | 1015.9 |
| 20260505084434 | 22 | 75 | 1.6 | 3.2 | 0.00 | 0.00 | 0.00 | 97 | 1015.9 |
| 20260505083931 | 22 | 75 | 0.0 | 1.6 | 0.00 | 0.00 | 0.00 | 97 | 1015.9 |
| 20260505083428 | 22 | 63 | 3.2 | 4.8 | 0.00 | 0.00 | 0.00 | 97 | 1016.0 |
| 20260505082924 | 22 | 61 | 3.2 | 3.2 | 0.00 | 0.00 | 0.00 | 97 | 1015.9 |
| 20260505082420 | 22 | 82 | 3.2 | 3.2 | 0.00 | 0.00 | 0.00 | 97 | 1015.9 |
| 20260505081918 | 22 | 67 | 3.2 | 3.2 | 0.00 | 0.00 | 0.00 | 97 | 1015.7 |
| 20260505081415 | 22 | 73 | 3.2 | 3.2 | 0.00 | 0.00 | 0.00 | 97 | 1015.6 |
| 20260505080911 | 22 | 87 | 3.2 | 3.2 | 0.00 | 0.00 | 0.00 | 97 | 1015.7 |
| 20260505080407 | 22 | 83 | 3.2 | 4.8 | 0.00 | 0.00 | 0.00 | 97 | 1015.7 |
| 20260505075903 | 22 | 33 | 3.2 | 4.8 | 0.00 | 0.00 | 0.00 | 97 | 1015.6 |
| 20260505075359 | 22 | 63 | 3.2 | 3.2 | 0.00 | 0.00 | 0.00 | 97 | 1015.8 |
| 20260505074857 | 23 | 88 | 3.2 | 3.2 | 0.00 | 0.00 | 0.00 | 97 | 1015.6 |
| 20260505074354 | 23 | 46 | 3.2 | 3.2 | 0.00 | 0.00 | 0.00 | 97 | 1015.6 |
| 20260505073851 | 23 | 59 | 3.2 | 4.8 | 0.00 | 0.00 | 0.00 | 97 | 1015.5 |
| 20260505073349 | 23 | 87 | 3.2 | 3.2 | 0.00 | 0.00 | 0.00 | 97 | 1015.5 |
| 20260505072846 | 23 | 71 | 3.2 | 3.2 | 0.00 | 0.00 | 0.00 | 97 | 1015.8 |
| 20260505072342 | 23 | 83 | 1.6 | 1.6 | 0.00 | 0.00 | 0.00 | 97 | 1015.4 |
| 20260505071838 | 23 | 89 | 0.0 | 1.6 | 0.00 | 0.00 | 0.00 | 97 | 1015.8 |
| 20260505071335 | 23 | 92 | 1.6 | 3.2 | 0.00 | 0.00 | 0.00 | 97 | 1015.6 |
| 20260505070833 | 23 | 54 | 0.0 | 3.2 | 0.00 | 0.00 | 0.00 | 97 | 1015.7 |
| 20260505070329 | 23 | 65 | 1.6 | 3.2 | 0.00 | 0.00 | 0.00 | 97 | 1015.4 |
| 20260505065824 | 23 | 61 | 1.6 | 3.2 | 0.00 | 0.00 | 0.00 | 97 | 1015.6 |
| 20260505065321 | 23 | 75 | 1.6 | 3.2 | 0.00 | 0.00 | 0.00 | 97 | 1015.6 |
| 20260505064819 | 23 | 80 | 3.2 | 3.2 | 0.00 | 0.00 | 0.00 | 97 | 1015.6 |
| 20260505064315 | 23 | 72 | 1.6 | 1.6 | 0.00 | 0.00 | 0.00 | 97 | 1015.7 |
| 20260505063814 | 23 | 119 | 1.6 | 4.8 | 0.00 | 0.00 | 0.00 | 97 | 1015.8 |
| 20260505063309 | 23 | 75 | 3.2 | 3.2 | 0.00 | 0.00 | 0.00 | 97 | 1015.8 |
| 20260505062806 | 23 | 55 | 0.0 | 3.2 | 0.00 | 0.00 | 0.00 | 97 | 1015.7 |
| 20260505062304 | 23 | 89 | 0.0 | 1.6 | 0.00 | 0.00 | 0.00 | 97 | 1015.8 |
| 20260505061800 | 23 | 89 | 3.2 | 3.2 | 0.00 | 0.00 | 0.00 | 97 | 1015.8 |
| 20260505061258 | 23 | 67 | 3.2 | 3.2 | 0.00 | 0.00 | 0.00 | 97 | 1016.0 |
| 20260505060755 | 23 | 68 | 3.2 | 3.2 | 0.00 | 0.00 | 0.00 | 97 | 1015.8 |
| 20260505060252 | 23 | 83 | 3.2 | 3.2 | 0.00 | 0.00 | 0.00 | 97 | 1015.9 |
| 20260505055748 | 23 | 86 | 3.2 | 3.2 | 0.00 | 0.00 | 0.00 | 97 | 1016.2 |
| 20260505055244 | 23 | 73 | 1.6 | 3.2 | 0.00 | 0.00 | 0.00 | 97 | 1016.1 |
| 20260505054742 | 23 | 83 | 3.2 | 3.2 | 0.00 | 0.00 | 0.00 | 97 | 1016.3 |
| 20260505054239 | 23 | 83 | 1.6 | 3.2 | 0.00 | 0.00 | 0.00 | 97 | 1016.2 |
| 20260505053737 | 23 | 84 | 3.2 | 3.2 | 0.00 | 0.00 | 0.00 | 97 | 1016.5 |
| 20260505053234 | 23 | 79 | 1.6 | 3.2 | 0.00 | 0.00 | 0.00 | 97 | 1016.4 |
| 20260505052731 | 23 | 84 | 3.2 | 3.2 | 0.00 | 0.00 | 0.00 | 97 | 1016.4 |
| 20260505052228 | 23 | 82 | 3.2 | 3.2 | 0.00 | 0.00 | 0.00 | 97 | 1016.5 |
| 20260505051725 | 23 | 79 | 3.2 | 4.8 | 0.00 | 0.00 | 0.00 | 97 | 1016.7 |
| 20260505051223 | 23 | 76 | 3.2 | 3.2 | 0.00 | 0.00 | 0.00 | 97 | 1016.5 |
| 20260505050720 | 23 | 58 | 0.0 | 1.6 | 0.00 | 0.00 | 0.00 | 97 | 1016.5 |
| 20260505050219 | 23 | 52 | 1.6 | 3.2 | 0.00 | 0.00 | 0.00 | 97 | 1016.5 |
| 20260505041648 | 23 | 88 | 3.2 | 3.2 | 0.00 | 0.00 | 0.00 | 96 | 1017.0 |
| 20260505041146 | 23 | 42 | 0.0 | 3.2 | 0.00 | 0.00 | 0.00 | 96 | 1017.0 |
| 20260505040643 | 23 | 60 | 3.2 | 3.2 | 0.00 | 0.00 | 0.00 | 96 | 1017.1 |
| 20260505040140 | 23 | 58 | 3.2 | 3.2 | 0.00 | 0.00 | 0.00 | 96 | 1017.2 |
| 20260505035636 | 23 | 76 | 3.2 | 3.2 | 0.00 | 0.00 | 0.00 | 96 | 1017.1 |
| 20260505035132 | 23 | 67 | 1.6 | 3.2 | 0.00 | 0.00 | 0.00 | 96 | 1017.4 |
| 20260505034629 | 23 | 59 | 3.2 | 3.2 | 0.00 | 0.00 | 0.00 | 96 | 1017.4 |
| 20260505034126 | 23 | 86 | 3.2 | 4.8 | 0.00 | 0.00 | 0.00 | 96 | 1017.4 |
| 20260505033622 | 23 | 47 | 3.2 | 4.8 | 0.00 | 0.00 | 0.00 | 96 | 1017.6 |
| 20260505033121 | 23 | 43 | 3.2 | 3.2 | 0.00 | 0.00 | 0.00 | 96 | 1017.4 |
| 20260505032619 | 23 | 76 | 3.2 | 4.8 | 0.00 | 0.00 | 0.00 | 96 | 1017.4 |
| 20260505032115 | 23 | 49 | 3.2 | 3.2 | 0.00 | 0.00 | 0.00 | 96 | 1017.3 |
| 20260505031612 | 23 | 77 | 3.2 | 3.2 | 0.00 | 0.00 | 0.00 | 96 | 1017.6 |
| 20260505031108 | 23 | 68 | 3.2 | 4.8 | 0.00 | 0.00 | 0.00 | 96 | 1017.4 |
| 20260505030605 | 23 | 70 | 3.2 | 3.2 | 0.00 | 0.00 | 0.00 | 96 | 1017.2 |
| 20260505025557 | 23 | 63 | 3.2 | 3.2 | 0.00 | 0.00 | 0.00 | 95 | 1017.5 |
| 20260505025056 | 23 | 73 | 0.0 | 4.8 | 0.00 | 0.00 | 0.00 | 95 | 1017.3 |
| 20260505024553 | 23 | 72 | 3.2 | 4.8 | 0.00 | 0.00 | 0.00 | 96 | 1017.2 |
| 20260505024050 | 23 | 77 | 3.2 | 3.2 | 0.00 | 0.00 | 0.00 | 95 | 1017.5 |
| 20260505023547 | 23 | 64 | 1.6 | 3.2 | 0.00 | 0.00 | 0.00 | 95 | 1017.3 |
| 20260505023045 | 23 | 98 | 3.2 | 4.8 | 0.00 | 0.00 | 0.00 | 95 | 1017.4 |
| 20260505022542 | 23 | 84 | 4.8 | 4.8 | 0.00 | 0.00 | 0.00 | 95 | 1017.2 |
| 20260505022039 | 23 | 77 | 3.2 | 3.2 | 0.00 | 0.00 | 0.00 | 95 | 1017.2 |
| 20260505021536 | 23 | 78 | 3.2 | 4.8 | 0.00 | 0.00 | 0.00 | 95 | 1017.1 |
| 20260505021033 | 23 | 95 | 3.2 | 4.8 | 0.00 | 0.00 | 0.00 | 95 | 1017.3 |
| 20260505020532 | 23 | 91 | 3.2 | 3.2 | 0.00 | 0.00 | 0.00 | 95 | 1017.3 |
| 20260505020030 | 23 | 84 | 1.6 | 3.2 | 0.00 | 0.00 | 0.00 | 95 | 1017.2 |
| 20260505015527 | 23 | 87 | 1.6 | 3.2 | 0.00 | 0.00 | 0.00 | 95 | 1017.1 |
| 20260505015023 | 23 | 75 | 3.2 | 4.8 | 0.00 | 0.00 | 0.00 | 95 | 1017.1 |
| 20260505014520 | 23 | 94 | 3.2 | 3.2 | 0.00 | 0.00 | 0.00 | 95 | 1017.1 |
| 20260505014018 | 24 | 87 | 3.2 | 3.2 | 0.00 | 0.00 | 0.00 | 95 | 1017.1 |
| 20260505013515 | 24 | 82 | 3.2 | 3.2 | 0.00 | 0.00 | 0.00 | 95 | 1017.0 |
| 20260505013012 | 24 | 83 | 1.6 | 3.2 | 0.00 | 0.00 | 0.00 | 95 | 1017.1 |
| 20260505012510 | 23 | 73 | 0.0 | 1.6 | 0.00 | 0.00 | 0.00 | 95 | 1016.9 |
| 20260505012007 | 23 | 87 | 3.2 | 3.2 | 0.00 | 0.00 | 0.00 | 94 | 1016.8 |
| 20260505011502 | 24 | 87 | 1.6 | 3.2 | 0.00 | 0.00 | 0.00 | 94 | 1016.9 |
| 20260505010959 | 24 | 89 | 3.2 | 3.2 | 0.00 | 0.00 | 0.00 | 94 | 1016.7 |
| 20260505010455 | 24 | 89 | 3.2 | 4.8 | 0.00 | 0.00 | 0.00 | 94 | 1016.8 |
| 20260505005951 | 24 | 96 | 3.2 | 3.2 | 0.00 | 0.00 | 0.00 | 94 | 1016.5 |
| 20260505005448 | 24 | 93 | 1.6 | 3.2 | 0.00 | 0.00 | 0.00 | 93 | 1016.6 |
| 20260505004946 | 24 | 70 | 3.2 | 3.2 | 0.00 | 0.00 | 0.00 | 93 | 1016.5 |
| 20260505004442 | 25 | 94 | 3.2 | 4.8 | 0.00 | 0.00 | 0.00 | 93 | 1016.4 |
| 20260505003939 | 25 | 61 | 0.0 | 1.6 | 0.00 | 0.00 | 0.00 | 93 | 1016.5 |
| 20260505003436 | 25 | 98 | 1.6 | 3.2 | 0.00 | 0.00 | 0.00 | 93 | 1016.5 |
| 20260505002932 | 25 | 99 | 3.2 | 3.2 | 0.00 | 0.00 | 0.00 | 93 | 1016.5 |
| 20260505002429 | 25 | 79 | 3.2 | 3.2 | 0.00 | 0.00 | 0.00 | 92 | 1016.4 |
| 20260505001927 | 25 | 89 | 1.6 | 3.2 | 0.00 | 0.00 | 0.00 | 92 | 1016.4 |
| 20260505001425 | 25 | 83 | 3.2 | 3.2 | 0.00 | 0.00 | 0.00 | 92 | 1016.4 |
| 20260505000922 | 25 | 72 | 1.6 | 3.2 | 0.00 | 0.00 | 0.00 | 91 | 1016.2 |
| 20260505000420 | 25 | 102 | 1.6 | 3.2 | 0.00 | 0.00 | 0.00 | 91 | 1016.5 |
| 20260504235916 | 25 | 64 | 1.6 | 3.2 | 0.00 | 0.00 | 0.00 | 90 | 1016.4 |
| 20260504235414 | 25 | 101 | 3.2 | 4.8 | 0.00 | 0.00 | 0.00 | 90 | 1016.4 |
| 20260504234909 | 25 | 95 | 1.6 | 3.2 | 0.00 | 0.00 | 0.00 | 89 | 1016.4 |
| 20260504234407 | 25 | 102 | 3.2 | 3.2 | 0.00 | 0.00 | 0.00 | 89 | 1016.4 |
| 20260504233903 | 25 | 83 | 1.6 | 3.2 | 0.00 | 0.00 | 0.00 | 88 | 1016.2 |
| 20260504233359 | 25 | 49 | 1.6 | 3.2 | 0.00 | 0.00 | 0.00 | 88 | 1016.0 |
| 20260504232856 | 25 | 61 | 0.0 | 3.2 | 0.00 | 0.00 | 0.00 | 87 | 1016.0 |
| 20260504232353 | 26 | 74 | 1.6 | 3.2 | 0.00 | 0.00 | 0.00 | 87 | 1015.9 |
| 20260504231850 | 26 | 84 | 3.2 | 3.2 | 0.00 | 0.00 | 0.00 | 86 | 1015.9 |
| 20260504231346 | 26 | 75 | 1.6 | 3.2 | 0.00 | 0.00 | 0.00 | 85 | 1016.0 |
| 20260504230843 | 26 | 44 | 3.2 | 3.2 | 0.00 | 0.00 | 0.00 | 85 | 1016.0 |
| 20260504230340 | 26 | 84 | 0.0 | 4.8 | 0.00 | 0.00 | 0.00 | 85 | 1016.0 |
| 20260504225839 | 26 | 111 | 3.2 | 4.8 | 0.00 | 0.00 | 0.00 | 84 | 1016.0 |
| 20260504225335 | 26 | 124 | 1.6 | 3.2 | 0.00 | 0.00 | 0.00 | 84 | 1015.8 |
| 20260504224833 | 26 | 108 | 3.2 | 4.8 | 0.00 | 0.00 | 0.00 | 84 | 1015.8 |
| 20260504224329 | 26 | 76 | 3.2 | 4.8 | 0.00 | 0.00 | 0.00 | 84 | 1015.7 |
| 20260504223826 | 26 | 104 | 4.8 | 4.8 | 0.00 | 0.00 | 0.00 | 83 | 1015.7 |
| 20260504223321 | 26 | 75 | 4.8 | 6.4 | 0.00 | 0.00 | 0.00 | 83 | 1015.7 |
| 20260504222818 | 26 | 108 | 4.8 | 6.4 | 0.00 | 0.00 | 0.00 | 83 | 1015.3 |
| 20260504222315 | 26 | 76 | 1.6 | 9.7 | 0.00 | 0.00 | 0.00 | 83 | 1015.5 |
| 20260504221814 | 26 | 85 | 4.8 | 9.7 | 0.00 | 0.00 | 0.00 | 82 | 1015.4 |
| 20260504221310 | 27 | 97 | 3.2 | 9.7 | 0.00 | 0.00 | 0.00 | 82 | 1015.4 |
| 20260504220807 | 27 | 76 | 6.4 | 12.9 | 0.00 | 0.00 | 0.00 | 82 | 1015.1 |
| 20260504220304 | 27 | 88 | 0.0 | 4.8 | 0.00 | 0.00 | 0.00 | 82 | 1015.1 |
| 20260504215801 | 27 | 86 | 3.2 | 8.0 | 0.00 | 0.00 | 0.00 | 82 | 1015.2 |
| 20260504215257 | 27 | 47 | 3.2 | 8.0 | 0.00 | 0.00 | 0.00 | 82 | 1015.0 |
| 20260504214753 | 27 | 111 | 0.0 | 12.9 | 0.00 | 0.00 | 0.00 | 83 | 1015.1 |
| 20260504214250 | 27 | 73 | 9.7 | 11.3 | 0.00 | 0.00 | 0.00 | 83 | 1015.0 |
| 20260504213747 | 27 | 124 | 6.4 | 16.1 | 0.00 | 0.00 | 0.00 | 82 | 1014.9 |
| 20260504213243 | 27 | 128 | 8.0 | 9.7 | 0.00 | 0.00 | 0.00 | 82 | 1015.0 |
| 20260504212740 | 28 | 86 | 9.7 | 16.1 | 0.00 | 0.00 | 0.00 | 79 | 1014.9 |
| 20260504212237 | 27 | 118 | 8.0 | 9.7 | 0.00 | 0.00 | 0.00 | 79 | 1014.7 |
| 20260504211734 | 28 | 81 | 9.7 | 14.5 | 0.00 | 0.00 | 0.00 | 79 | 1014.6 |
| 20260504211230 | 28 | 72 | 8.0 | 8.0 | 0.00 | 0.00 | 0.00 | 79 | 1014.7 |
| 20260504210728 | 28 | 135 | 6.4 | 11.3 | 0.00 | 0.00 | 0.00 | 80 | 1014.9 |
| 20260504210225 | 27 | 332 | 6.4 | 11.3 | 0.00 | 0.00 | 0.00 | 82 | 1014.7 |
| 20260504205722 | 27 | 207 | 3.2 | 6.4 | 0.00 | 0.00 | 0.00 | 85 | 1014.7 |
| 20260504205220 | 26 | 15 | 0.0 | 6.4 | 0.00 | 0.00 | 0.00 | 86 | 1014.6 |
| 20260504204718 | 26 | 204 | 3.2 | 14.5 | 0.00 | 0.00 | 0.00 | 86 | 1014.7 |
| 20260504204216 | 27 | 79 | 11.3 | 16.1 | 0.00 | 0.00 | 0.00 | 84 | 1014.6 |
| 20260504203715 | 26 | 78 | 4.8 | 12.9 | 0.00 | 0.00 | 0.00 | 86 | 1014.6 |
| 20260504203212 | 26 | 95 | 3.2 | 8.0 | 0.00 | 0.00 | 0.00 | 87 | 1014.7 |
| 20260504202711 | 26 | 222 | 3.2 | 16.1 | 0.00 | 0.00 | 0.00 | 86 | 1014.8 |
| 20260504202209 | 27 | 103 | 6.4 | 17.7 | 0.00 | 0.00 | 0.00 | 82 | 1014.8 |
| 20260504201706 | 27 | 109 | 6.4 | 17.7 | 0.00 | 0.00 | 0.00 | 78 | 1014.9 |
| 20260504201203 | 27 | 121 | 12.9 | 12.9 | 0.00 | 0.00 | 0.00 | 79 | 1014.7 |
| 20260504200701 | 28 | 133 | 4.8 | 17.7 | 0.00 | 0.00 | 0.00 | 77 | 1014.9 |
| 20260504200157 | 28 | 101 | 8.0 | 9.7 | 0.00 | 0.00 | 0.00 | 77 | 1014.6 |
| 20260504195653 | 28 | 70 | 6.4 | 14.5 | 0.00 | 0.00 | 0.00 | 77 | 1014.6 |
| 20260504195149 | 27 | 111 | 8.0 | 14.5 | 0.00 | 0.00 | 0.00 | 78 | 1014.7 |
| 20260504194646 | 28 | 102 | 9.7 | 17.7 | 0.00 | 0.00 | 0.00 | 76 | 1014.9 |
| 20260504194142 | 28 | 82 | 8.0 | 12.9 | 0.00 | 0.00 | 0.00 | 76 | 1014.7 |
| 20260504193639 | 30 | 216 | 17.7 | 24.1 | 0.00 | 0.00 | 0.00 | 70 | 1015.0 |
| 20260504193137 | 28 | 213 | 11.3 | 20.9 | 0.00 | 0.00 | 0.00 | 73 | 1014.9 |
| 20260504192634 | 29 | 289 | 3.2 | 11.3 | 0.00 | 0.00 | 0.00 | 73 | 1014.7 |
| 20260504192132 | 29 | 18 | 4.8 | 11.3 | 0.00 | 0.00 | 0.00 | 73 | 1014.9 |
| 20260504191631 | 29 | 83 | 8.0 | 16.1 | 0.00 | 0.00 | 0.00 | 72 | 1014.8 |
| 20260504191127 | 29 | 225 | 8.0 | 17.7 | 0.00 | 0.00 | 0.00 | 73 | 1014.9 |
| 20260504190623 | 29 | 109 | 9.7 | 19.3 | 0.00 | 0.00 | 0.00 | 71 | 1014.8 |
| 20260504190120 | 29 | 209 | 17.7 | 27.4 | 0.00 | 0.00 | 0.00 | 72 | 1014.9 |
| 20260504185616 | 28 | 214 | 9.7 | 27.4 | 0.00 | 0.00 | 0.00 | 75 | 1014.9 |
| 20260504185113 | 29 | 189 | 9.7 | 22.5 | 0.00 | 0.00 | 0.00 | 73 | 1014.9 |
| 20260504184608 | 29 | 31 | 3.2 | 14.5 | 0.00 | 0.00 | 0.00 | 73 | 1015.2 |
| 20260504184104 | 28 | 1 | 3.2 | 14.5 | 0.00 | 0.00 | 0.00 | 74 | 1015.4 |
| 20260504183601 | 28 | 35 | 4.8 | 12.9 | 0.00 | 0.00 | 0.00 | 73 | 1015.2 |
| 20260504183059 | 30 | 109 | 3.2 | 22.5 | 0.00 | 0.00 | 0.00 | 70 | 1015.4 |
| 20260504182556 | 30 | 73 | 12.9 | 14.5 | 0.00 | 0.00 | 0.00 | 71 | 1015.4 |
| 20260504182053 | 30 | 80 | 9.7 | 20.9 | 0.00 | 0.00 | 0.00 | 70 | 1015.4 |
| 20260504181550 | 30 | 34 | 4.8 | 11.3 | 0.00 | 0.00 | 0.00 | 70 | 1015.3 |
| 20260504181048 | 30 | 249 | 4.8 | 22.5 | 0.00 | 0.00 | 0.00 | 71 | 1015.2 |
| 20260504180547 | 28 | 202 | 14.5 | 25.7 | 0.00 | 0.00 | 0.00 | 75 | 1015.6 |
| 20260504180045 | 28 | 225 | 11.3 | 22.5 | 0.00 | 0.00 | 0.00 | 76 | 1015.5 |
| 20260504175542 | 28 | 186 | 8.0 | 29.0 | 0.00 | 0.00 | 0.00 | 76 | 1015.6 |
| 20260504175039 | 30 | 215 | 30.6 | 32.2 | 0.00 | 0.00 | 0.00 | 71 | 1015.7 |
| 20260504174537 | 29 | 341 | 3.2 | 11.3 | 0.00 | 0.00 | 0.00 | 71 | 1015.6 |
| 20260504174033 | 29 | 198 | 1.6 | 20.9 | 0.00 | 0.00 | 0.00 | 69 | 1015.7 |
| 20260504173530 | 30 | 207 | 6.4 | 14.5 | 0.00 | 0.00 | 0.00 | 68 | 1015.8 |
| 20260504173028 | 30 | 153 | 11.3 | 17.7 | 0.00 | 0.00 | 0.00 | 69 | 1016.0 |
| 20260504172524 | 29 | 88 | 6.4 | 17.7 | 0.00 | 0.00 | 0.00 | 69 | 1015.8 |
| 20260504172020 | 30 | 85 | 16.1 | 20.9 | 0.00 | 0.00 | 0.00 | 67 | 1016.0 |
| 20260504171517 | 30 | 354 | 4.8 | 20.9 | 0.00 | 0.00 | 0.00 | 67 | 1016.2 |
| 20260504171014 | 30 | 126 | 3.2 | 17.7 | 0.00 | 0.00 | 0.00 | 66 | 1016.1 |
| 20260504170510 | 30 | 246 | 8.0 | 9.7 | 0.00 | 0.00 | 0.00 | 65 | 1016.1 |
| 20260504160431 | 30 | 59 | 4.8 | 17.7 | 0.00 | 0.00 | 0.00 | 66 | 1016.9 |
| 20260504150854 | 28 | 235 | 6.4 | 24.1 | 0.00 | 0.00 | 0.00 | 68 | 1017.0 |
| 20260504150351 | 29 | 194 | 6.4 | 20.9 | 0.00 | 0.00 | 0.00 | 66 | 1016.9 |
| 20260504141321 | 30 | 4 | 4.8 | 14.5 | 0.00 | 0.00 | 0.00 | 67 | 1017.1 |
| 20260504140817 | 30 | 3 | 6.4 | 17.7 | 0.00 | 0.00 | 0.00 | 68 | 1016.9 |
| 20260504140313 | 29 | 142 | 9.7 | 24.1 | 0.00 | 0.00 | 0.00 | 70 | 1017.1 |
| 20260504130742 | 27 | 55 | 11.3 | 14.5 | 0.00 | 0.00 | 0.00 | 78 | 1017.3 |
| 20260504130238 | 27 | 89 | 16.1 | 19.3 | 0.00 | 0.00 | 0.00 | 77 | 1017.0 |
| 20260504120202 | 26 | 83 | 1.6 | 6.4 | 0.00 | 0.00 | 0.00 | 85 | 1017.3 |